Other Public Products
Issued by NWS Grand Forks, ND

Home | Current Version | Previous Version | Text Only | Print | Product List | Glossary On
Versions: 1 2 3 4 5 6 7 8 9 10 11 12 13 14 15 16 17 18 19 20 21 22 23 24 25 26 27 28 29 30 31 32 33 34 35 36 37 38 39 40 41 42 43 44 45 46 47 48 49 50
000
FPUS83 KFGF 261410
OPUFGF
PRAIRIE TO PINES WEATHER ROUNDUP
NATIONAL WEATHER SERVICE EASTERN NORTH DAKOTA/GRAND FORKS ND
900 AM CDT MON SEP 26 2016

 **SATELLITE DATA USED TO AUGMENT SKY COVER AT AUTOMATED STATIONS**
 *****  WEATHER ACROSS EASTERN NORTH DAKOTA  *****

CITY           SKY/WX    TMP DP  RH WIND       PRES   REMARKS
GRAND FORKS    MOSUNNY   51  39  63 W20       29.94S
GRAND FORKS AF SUNNY     51  37  57 NW18G30   29.96R
GRAND CITY NWS NOT AVBL
BUXTON         NOT AVBL
DEVILS LAKE    SUNNY     47  38  71 W16       30.04R
FARGO          SUNNY     53  37  54 W20       29.99R
WAHPETON ARPT  SUNNY     48  36  61 W20G26    30.03R
$$

 *****  WEATHER ACROSS CENTRAL AND WESTERN NORTH DAKOTA  *****

CITY           SKY/WX    TMP DP  RH WIND       PRES   REMARKS
JAMESTOWN      SUNNY     49  38  65 W16G24    30.07S
BISMARCK       SUNNY     46  35  65 W10       30.18R
MINOT          SUNNY     49  35  58 W14       30.13R
MINOT AFB      SUNNY     48  35  61 NW17      30.12R
GARRISON         N/A     48  39  71 NW13      30.15S
WILLISTON      SUNNY     42  36  79 S7        30.21R
DICKINSON      SUNNY     44  40  85 W9        30.20R
HETTINGER      SUNNY     45  39  79 CALM      30.24R
$$

 *****  OTHER OBSERVATIONS NORTHEAST NORTH DAKOTA  *****

CITY           SKY/WX    TMP DP  RH WIND       PRES   REMARKS
WALHALLA       FAIR      48  46  93 NW14G29   29.93S
LANGDON        FAIR      46  37  71 NW20G29   29.97S
CAVALIER       FAIR      50  37  62 NW17      29.93R
GRAFTON        FAIR      50  39  66 NW20      29.95S
CANDO          FAIR      45  39  81 W14       30.06R
FORT TOTTEN    NOT AVBL
ROLLA          FAIR      48  32  53 NW21      30.04R
RUGBY          FAIR      41  37  87 W13       30.08R
 ***** THE ABOVE OBSERVATIONS ARE NON NWS ARE NOT QUALITY
        CONTROLLED AND MAY MIS-REPORT RAIN FOR SNOW...
$$

 *****  OTHER OBSERVATIONS SOUTHEAST NORTH DAKOTA *****

CITY           SKY/WX    TMP DP  RH WIND       PRES   REMARKS
COOPERSTOWN    FAIR      46  37  71 W18       30.03S
VALLEY CITY    FAIR      48  37  66 W18G25    30.07R
OAKES          NOT AVBL
GWINNER        FAIR      48  39  71 W17       30.07R
SHEYENNE NWR     N/A     49  37  63 W12       29.95
BUFFALO        NOT AVBL
WYNDMERE       NOT AVBL
 ***** THE ABOVE OBSERVATIONS ARE NON NWS ARE NOT QUALITY
       CONTROLLED AND MAY MIS-REPORT RAIN FOR SNOW...
$$

  *****  WEATHER ACROSS NORTHERN MINNESOTA  *****

CITY           SKY/WX    TMP DP  RH WIND       PRES   REMARKS
FLAG ISLAND    CLOUDY    48  45  87 NW24G37   29.70S
WARROAD        CLOUDY    48  45  87 W15G23    29.78R
ROSEAU         MOSUNNY   48  41  76 W14G21    29.80S
HALLOCK        SUNNY     52  39  62 NW17G25   29.89S
THF RVR FALLS  SUNNY     48  39  71 W18G26    29.89S
HALSTAD          N/A     50  39  65 NW16        N/A
FOSSTON        SUNNY     48  37  66 W21G26    29.90S
BAUDETTE       LGT RAIN  47  44  90 W14G21    29.73S
WASKISH        CLOUDY    50  43  76 W25G35    29.77S
CROOKSTON      SUNNY     50  39  66 NW20      29.93R
$$
  *****  WEATHER ACROSS CENTRAL AND WEST MINNESOTA  *****

CITY           SKY/WX    TMP DP  RH WIND       PRES   REMARKS
BEMIDJI        MOSUNNY   49  40  70 NW22G32   29.84S
PARK RAPIDS    CLOUDY    49  37  63 NW18G28   29.88S
WADENA         NOT AVBL
DETROIT LAKES  SUNNY     50  37  62 NW18G25   29.95S
MOORHEAD       SUNNY     52  37  58 W17       30.00R
FERGUS FALLS   SUNNY     48  39  71 W15       30.02S
ELBOW LAKE     FAIR      48  38  68 NW16      30.01R
MORRIS MN      SUNNY     54  37  54 W21       30.00S
STAPLES        SUNNY     48  37  66 W15G22    29.91S
WHEATON        NOT AVBL
$$
  *****  WEATHER ELSEWHERE ACROSS MINNESOTA  *****

CITY           SKY/WX    TMP DP  RH WIND       PRES   REMARKS
DULUTH         LGT RAIN  48  45  89 W22G35    29.70S
INTRNTL FALLS  CLOUDY    48  45  89 W17G28    29.65S
ELY            RAIN      48  46  93 W15G23    29.60S
CLOQUET        PTSUNNY   50  41  71 W20G30    29.74F
BRAINERD       SUNNY     50  39  66 W13G29    29.88S
HIBBING        CLOUDY    47  43  86 W13G25    29.71S
ALEXANDRIA     SUNNY     49  38  65 W18G28    29.98S
SAINT CLOUD    SUNNY     51  40  65 W17G23    29.93S
MINNEAPOLIS    SUNNY     54  40  59 W16G22    29.94F
$$

  *****  WEATHER ACROSS SOUTH DAKOTA  *****

CITY           SKY/WX    TMP DP  RH WIND       PRES   REMARKS
SIOUX FALLS    MOSUNNY   51  39  63 W8        30.17R
BROOKINGS      SUNNY     49  38  65 NW9       30.13S HAZE
WATERTOWN      SUNNY     50  37  61 NW14G21   30.11R
HURON          SUNNY     51  39  63 W14       30.17S
SISSETON         N/A     54  36  50 NW20      30.05S
ABERDEEN       SUNNY     48  37  65 W12       30.14S
MITCHELL       SUNNY     50  39  66 W9        30.20S
PIERRE         SUNNY     47  37  68 VRB3      30.20S
MOBRIDGE       SUNNY     50  39  66 NW10      30.16S
RAPID CITY     SUNNY     51  39  63 W5        30.28R
$$

  *****  SOME WEATHER IN NEARBY STATES *****

CITY           SKY/WX    TMP DP  RH WIND       PRES   REMARKS
GLASGOW MT     CLEAR     39  37  92 NW9       30.25R
GREAT FALLS MT PTCLDY    49  41  74 S10       30.31S
CHEYENNE WY    SUNNY     47  34  60 W6        30.44S
SCOTTSBLUFF NE SUNNY     42  38  85 NW10      30.38R
OMAHA NE       SUNNY     56  40  55 W6        30.24S
DES MOINES IA  SUNNY     57  41  55 W10       30.16S
DAVENPORT IA   SUNNY     57  43  59 W13G21    30.08S
CHICAGO IL     MOSUNNY   60  47  61 W14       29.99S
EAU CLAIRE WI  SUNNY     54  42  64 W17G24    29.87S
LA CROSSE WI   MOSUNNY   57  43  59 W15G25    29.95S
$$

  *****  SOME NATIONAL WEATHER *****

CITY           SKY/WX    TMP DP  RH WIND       PRES   REMARKS
LA GUARDIA NY  PTSUNNY   65  46  50 NE7       30.19F
RALEIGH NC     NOT AVBL
ATLANTA GA     MOSUNNY   78  67  68 SE8       30.10S
NEW ORLEANS LA MOSUNNY   85  74  69 NW7       30.02S HX  92
OKLAHOMA CITY  PTSUNNY   62  47  57 N8        30.28R
ALBUQUERQUE NM MOSUNNY   56  34  43 CALM      30.48R
SALT LAKE CITY CLEAR     50  44  80 SE6       30.42R
LOS ANGELES CA PTCLDY    82  24  12 N7        29.93S
BOISE ID       CLEAR     54  40  59 SE13      30.33R
SEATTLE WA     PTCLDY    54  50  86 NW5       30.14F
$$

*** WEATHER ACROSS MANITOBA...SASKATCHEWAN AND ONTARIO ***
                ***ONTARIO***

CITY           SKY/WX    TMP DP  RH WIND       PRES   REMARKS
GERALDTON      CLOUDY    55  54  94 S7        29.47F
THUNDER BAY    LGT RAIN  54  54 100 W8        29.45F FOG
SIOUX LOOKOUT  DRIZZLE   48  48 100 NW16G29   29.47F FOG
TORONTO        CLOUDY    63  52  67 SE8       29.89F
BIG TROUT LK   CLOUDY    54  54 100 SE6       29.43S
PICKLE LAKE    DRIZZLE   54  54 100 SE6       29.39S FOG
DRYDEN         LGT RAIN  48  46  93 W15G23    29.54S
KENORA         LGT RAIN  48  46  93 NW16G28   29.64S
$$
                *** MANITOBA***

CITY           SKY/WX    TMP DP  RH WIND       PRES   REMARKS
BRANDON        MOSUNNY   43  36  75 W13       30.01R
DAUPHIN        SUNNY     48  37  66 W14       29.98R
ISLAND LAKE    LGT RAIN  48  48 100 NW16G30   29.60R
PILOT MOUND      N/A     46  36  66 NW15G23     N/A
THE PAS        CLOUDY    50  41  71 NW13G23   29.98S
THOMPSON       LGT RAIN  50  48  93 NW10G18   29.79R
WINNIPEG       MOSUNNY   48  43  81 W15       29.85F
LYNN LAKE      CLOUDY    48  43  81 NW17G26   29.94R
CHURCHILL      CLOUDY    45  43  93 N25       29.64S
GILLAM         CLOUDY    48  45  87 N23       29.64S
$$
                ***SASKATCHEWAN***

CITY           SKY/WX    TMP DP  RH WIND       PRES   REMARKS
ESTEVAN        NOT AVBL
KINDERSLEY     PTCLDY    37  36  93 SE5       30.19R
LLOYDMINSTER   NOT AVBL
PRINCE ALBERT  PTCLDY    34  32  93 W3        30.15R
REGINA         CLEAR     36  34  93 W5        30.18S
YORKTON        SUNNY     43  37  81 W9        30.10R   C1F1C2F2C3F3C4F4C5F5C6F6C7F7C8F8C9F9CaFaCbFbCcFcCdFdCe!


USA.gov is the U.S. government's official web portal to all federal, state and local government web resources and services.